Weather History for KHYA - May, 2013

Change the Weather History Date:

Tuesday, May 14, 2013

  Actual Average Record
Temperature  
Mean Temperature 49 °F -  
Max Temperature 57 °F 62 °F 77 °F (1933)
Min Temperature 44 °F 44 °F 28 °F (1954)
Degree Days  
Heating Degree Days 16    
Moisture  
Dew Point 35 °F    
Average Humidity 57    
Maximum Humidity 81    
Minimum Humidity 40    
Precipitation  
Precipitation 0.02 in - - ()
Sea Level Pressure  
Sea Level Pressure 30.00 in    
Wind  
Wind Speed 10 mph (NW)    
Max Wind Speed 17 mph    
Max Gust Speed 23 mph    
Visibility 10 miles    
Events Rain    
Averages and records for this station are not official NWS values.
T = Trace of Precipitation, MM = Missing Value Source: NWS Daily Summary

Daily Weather History Graph

Daily Weather History Graph

Search for Another Location

Airport or City:

Trip Planner

Search our weather history database for the weather conditions in past years. The results will help you decide how hot, cold, wet, or windy it might be!

Date:

Astronomy

May. 14, 2013 Rise Set
Actual Time 5:22 AM EDT 7:53 PM EDT
Civil Twilight 4:50 AM EDT 8:24 PM EDT
Nautical Twilight 4:11 AM EDT 9:04 PM EDT
Astronomical Twilight 3:27 AM EDT 9:48 PM EDT
Moon 8:59 AM EDT (5/14) 11:38 PM EDT (5/14)
Length of Visible Light 15h 34m
Length of Day
14h 30m
Waxing Crescent, 19% of the Moon is Illuminated
May 14
Waxing Crescent
May 18
First Quarter
May 25
Full
May 31
Last Quarter
Jun 8
New

Hourly Weather History & Observations

Time (EDT) Temp. Windchill Dew Point Humidity Pressure Visibility Wind Dir Wind Speed Gust Speed Precip Events Conditions
12:56 AM 50.0 °F - 30.9 °F 48% 29.98 in 10.0 mi NNW 12.7 mph 21.9 mph N/A   Overcast
1:56 AM 50.0 °F - 32.0 °F 50% 29.97 in 10.0 mi NNW 11.5 mph 18.4 mph N/A   Overcast
2:56 AM 50.0 °F - 32.0 °F 50% 29.98 in 10.0 mi NNW 11.5 mph 17.3 mph N/A   Overcast
3:56 AM 48.9 °F - 33.1 °F 54% 29.97 in 10.0 mi North 8.1 mph - N/A   Overcast
4:56 AM 48.9 °F - 32.0 °F 52% 29.97 in 10.0 mi NNW 8.1 mph - N/A   Overcast
5:56 AM 48.9 °F - 33.1 °F 54% 29.98 in 10.0 mi NNW 9.2 mph - N/A   Overcast
6:56 AM 48.9 °F - 34.0 °F 56% 30.00 in 10.0 mi NNW 6.9 mph - 0.00 in Rain Light Rain
7:30 AM 44.6 °F - 37.4 °F 76% 30.00 in 10.0 mi Calm Calm - 0.01 in Rain Light Rain
7:48 AM 44.6 °F 40.7 °F 39.2 °F 81% 30.00 in 10.0 mi NW 6.9 mph - 0.01 in Rain Light Rain
7:56 AM 45.0 °F 42.6 °F 39.0 °F 80% 30.01 in 10.0 mi NW 4.6 mph - 0.01 in Rain Light Rain
8:56 AM 48.9 °F - 35.1 °F 59% 30.01 in 10.0 mi North 15.0 mph 20.7 mph 0.01 in   Overcast
9:56 AM 52.0 °F - 37.9 °F 59% 30.00 in 10.0 mi North 17.3 mph 23.0 mph N/A   Scattered Clouds
10:56 AM 54.0 °F - 35.1 °F 49% 30.01 in 10.0 mi North 13.8 mph 23.0 mph N/A   Partly Cloudy
11:56 AM 53.1 °F - 35.1 °F 50% 30.03 in 10.0 mi North 12.7 mph 23.0 mph N/A   Clear
12:56 PM 54.0 °F - 34.0 °F 47% 30.01 in 10.0 mi North 10.4 mph 17.3 mph N/A   Clear
1:56 PM 54.0 °F - 30.0 °F 40% 30.01 in 10.0 mi North 10.4 mph - N/A   Scattered Clouds
2:56 PM 54.0 °F - 30.9 °F 41% 30.01 in 10.0 mi NW 5.8 mph - N/A   Overcast
3:56 PM 51.1 °F - 37.0 °F 59% 30.00 in 10.0 mi WSW 6.9 mph - 0.00 in Rain Light Rain
4:56 PM 54.0 °F - 37.0 °F 53% 29.99 in 10.0 mi SW 12.7 mph 20.7 mph 0.00 in   Partly Cloudy
5:56 PM 54.0 °F - 37.0 °F 53% 29.98 in 10.0 mi SW 13.8 mph - N/A   Mostly Cloudy
6:56 PM 52.0 °F - 37.9 °F 59% 29.99 in 10.0 mi WSW 12.7 mph - N/A   Scattered Clouds
7:56 PM 52.0 °F - 39.0 °F 61% 29.99 in 10.0 mi WSW 9.2 mph - N/A   Mostly Cloudy
8:56 PM 50.0 °F - 39.0 °F 66% 30.01 in 10.0 mi WSW 6.9 mph - N/A   Clear
9:56 PM 51.1 °F - 39.9 °F 66% 30.03 in 10.0 mi West 4.6 mph - N/A   Overcast
10:56 PM 51.1 °F - 37.0 °F 59% 30.03 in 10.0 mi West 5.8 mph - N/A   Overcast
11:56 PM 48.9 °F - 34.0 °F 56% 30.04 in 10.0 mi West 3.5 mph - N/A   Mostly Cloudy